レモン-パンスターズ彗星

302P/Lemmon-PanSTARRS (2016)

English version
Home page
Updated on November 20, 2016

---------------------------------------------------------------------

・ プロフィール

符号 302P/2014 K2
発見日 2014年5月21日
発見光度 21.4等
発見者 Pan-STARRS 1 telescope (Haleakala)

・ 写真集

・ 軌道要素

Epoch 2016 May 12.0 TT = JDT 2457520.5
T 2016 Apr. 30.56133 TT                                 MPCW
q   3.3022084            (2000.0)            P               Q
n   0.11130466     Peri.  208.28342     +0.86438834     +0.49482994
a   4.2801648      Node   121.78450     -0.43926337     +0.82955381
e   0.2284857      Incl.    6.03092     -0.24470488     +0.25881228
P   8.86
From 41 observations 2007 Aug. 16-2016 Aug. 13, mean residual 0".4.

・ 光度変化

        m1 = 8.5 + 5 logΔ + 15.0 log r

---------------------------------------------------------------------

軌道要素はM.P.E.C. 2016-Q04に掲載されたものです。
光度グラフはComet for Windowsで作成したものです。

---------------------------------------------------------------------

Copyright(C) Seiichi Yoshida (comet@aerith.net). All rights reserved.